Cleveland Burke, OH

4:13 PM EDT on September 21, 2017 (GMT -0400)
Burke Lakefront

Weather History for KBKL - January, 1999

Change the Weather History Date:

Wednesday, January 13, 1999

  Actual Average Record
Temperature  
Mean Temperature 20 °F -  
Max Temperature 27 °F 31 °F 73 °F (2005)
Min Temperature 12 °F 21 °F 6 °F (1997)
Degree Days  
Heating Degree Days 44    
Moisture  
Dew Point 18 °F    
Average Humidity 91    
Maximum Humidity 100    
Minimum Humidity 73    
Precipitation  
Precipitation 0.05 in - - ()
Sea Level Pressure  
Sea Level Pressure 30.22 in    
Wind  
Wind Speed 21 mph (NE)    
Max Wind Speed 29 mph    
Max Gust Speed 36 mph    
Visibility 2 miles    
Events Fog , Rain , Snow    
Averages and records for this station are not official NWS values.
T = Trace of Precipitation, MM = Missing Value Source: NWS Daily Summary

Daily Weather History Graph

Daily Weather History Graph

Search for Another Location

Airport or City:

Trip Planner

Search our weather history database for the weather conditions in past years. The results will help you decide how hot, cold, wet, or windy it might be!

Date:

Astronomy

Jan. 13, 1999 Rise Set
Actual Time 7:51 AM EST 5:19 PM EST
Civil Twilight 7:21 AM EST 5:49 PM EST
Nautical Twilight 6:46 AM EST 6:24 PM EST
Astronomical Twilight 6:13 AM EST 6:57 PM EST
Moon 4:07 AM EST (1/13) 2:24 PM EST (1/13)
Length of Visible Light 10h 28m
Length of Day
9h 27m
Waning Crescent, 15% of the Moon is Illuminated
Jan 13
Waning Crescent
Jan 17
New
Jan 24
First Quarter
Jan 31
Full
Feb 8
Last Quarter

Hourly Weather History & Observations

Time (EST) Temp. Windchill Dew Point Humidity Pressure Visibility Wind Dir Wind Speed Gust Speed Precip Events Conditions
12:53 AM 27.0 °F 13.5 °F 25.0 °F 92% 29.98 in 6.0 mi NNE 19.6 mph - 0.00 in Rain Light Freezing Rain
1:53 AM 26.1 °F 12.3 °F 24.1 °F 92% 29.99 in 3.0 mi NNE 19.6 mph - 0.00 in Rain Light Freezing Rain
2:08 AM 26.6 °F 13.4 °F 24.8 °F 93% 29.96 in 4.0 mi NE 18.4 mph - 0.00 in Rain Light Freezing Rain
2:34 AM 26.6 °F 14.3 °F 24.8 °F 93% 29.96 in 4.0 mi NE 16.1 mph - 0.01 in Rain Light Freezing Rain
2:53 AM 26.1 °F 13.1 °F 25.0 °F 96% 30.00 in 3.0 mi NE 17.3 mph - 0.01 in Rain Light Freezing Rain
3:24 AM 26.6 °F 14.3 °F 24.8 °F 93% 29.98 in 4.0 mi NE 16.1 mph - 0.00 in Rain Light Freezing Rain
3:36 AM 26.6 °F 13.4 °F 24.8 °F 93% 29.99 in 3.0 mi NNE 18.4 mph - 0.00 in Snow Light Snow
3:53 AM 26.1 °F 13.1 °F 25.0 °F 96% 30.02 in 3.0 mi NNE 17.3 mph - 0.01 in Rain Light Freezing Rain
4:02 AM 26.6 °F 13.4 °F 24.8 °F 93% 30.01 in 4.0 mi NE 18.4 mph - 0.00 in Rain Light Freezing Rain
4:11 AM 24.8 °F 10.3 °F 24.8 °F 100% 30.01 in 3.0 mi NNE 20.7 mph - 0.00 in Rain Light Freezing Rain
4:18 AM 24.8 °F 10.7 °F 24.8 °F 100% 30.01 in 4.0 mi NNE 19.6 mph - 0.01 in Rain Light Freezing Rain
4:34 AM 24.8 °F 11.1 °F 24.8 °F 100% 30.02 in 4.0 mi NNE 18.4 mph - 0.01 in Rain Light Freezing Rain
4:40 AM 24.8 °F 11.5 °F 24.8 °F 100% 30.02 in 3.0 mi NE 17.3 mph - 0.01 in Snow Light Snow
4:53 AM 25.0 °F 11.7 °F 24.1 °F 96% 30.06 in 2.0 mi NE 17.3 mph - 0.02 in Snow Light Snow
4:56 AM 24.8 °F 11.5 °F 24.8 °F 100% 30.03 in 2.0 mi NNE 17.3 mph - 0.00 in Snow Light Snow
5:04 AM 24.8 °F 11.9 °F 24.8 °F 100% 30.04 in 1.8 mi NNE 16.1 mph - 0.00 in Snow Light Snow
5:16 AM 26.6 °F 14.3 °F 24.8 °F 93% 30.05 in 1.8 mi NNE 16.1 mph 23.0 mph 0.00 in Snow Light Snow
5:53 AM 23.0 °F 7.2 °F 21.0 °F 92% 30.11 in 1.0 mi NNE 23.0 mph 27.6 mph 0.01 in Snow Light Snow
6:00 AM 21.2 °F 5.6 °F 21.2 °F 100% 30.09 in 1.2 mi NNE 20.7 mph 28.8 mph 0.00 in Snow Light Snow
6:37 AM 21.2 °F 5.6 °F 19.4 °F 93% 30.13 in 1.2 mi NNE 20.7 mph - 0.00 in Snow Light Snow
6:45 AM 21.2 °F 4.5 °F 19.4 °F 93% 30.13 in 1.2 mi NE 24.2 mph - 0.00 in Snow Light Snow
6:53 AM 21.0 °F 4.6 °F 19.0 °F 92% 30.16 in 1.2 mi NE 23.0 mph - 0.00 in Snow Light Snow
7:00 AM 21.2 °F 5.6 °F 19.4 °F 93% 30.13 in 1.2 mi NE 20.7 mph - 0.00 in Snow Light Snow
7:20 AM 21.2 °F 4.5 °F 19.4 °F 93% 30.14 in 1.2 mi NE 24.2 mph 28.8 mph 0.00 in Snow Light Snow
7:40 AM 21.2 °F 5.2 °F 17.6 °F 86% 30.14 in 1.8 mi NE 21.9 mph - 0.00 in Snow Light Snow
7:53 AM 19.9 °F 3.5 °F 18.0 °F 92% 30.18 in 1.8 mi NE 21.9 mph - 0.00 in Snow Light Snow
8:29 AM 21.2 °F 4.5 °F 17.6 °F 86% 30.17 in 0.8 mi NE 24.2 mph - 0.00 in Snow Light Snow
8:53 AM 19.9 °F 2.5 °F 18.0 °F 92% 30.21 in 1.0 mi NE 25.3 mph - 0.00 in Snow Light Snow
9:12 AM 19.4 °F 2.1 °F 17.6 °F 93% 30.19 in 2.0 mi NE 24.2 mph - 0.00 in Snow Light Snow
9:18 AM 19.4 °F 3.2 °F 17.6 °F 93% 30.19 in 3.0 mi NE 20.7 mph - 0.00 in   Overcast
9:21 AM 19.4 °F 2.1 °F 17.6 °F 93% 30.19 in 2.5 mi NE 24.2 mph 27.6 mph 0.00 in   Overcast
9:30 AM 19.4 °F 3.6 °F 17.6 °F 93% 30.20 in 2.5 mi NE 19.6 mph - 0.00 in Snow Light Snow
9:45 AM 19.4 °F 2.1 °F 17.6 °F 93% 30.21 in 2.5 mi NE 24.2 mph 29.9 mph 0.00 in Snow Light Snow
9:53 AM 19.9 °F 2.5 °F 18.0 °F 92% 30.24 in 1.0 mi NE 25.3 mph 29.9 mph 0.00 in Snow Light Snow
10:27 AM 19.4 °F 1.8 °F 17.6 °F 93% 30.25 in 1.0 mi NE 25.3 mph 31.1 mph 0.00 in Snow Light Snow
10:43 AM 19.4 °F 1.8 °F 17.6 °F 93% 30.25 in 0.8 mi NE 25.3 mph 31.1 mph 0.00 in Snow Light Snow
10:53 AM 19.9 °F 2.5 °F 17.1 °F 89% 30.28 in 0.8 mi NE 25.3 mph 31.1 mph 0.00 in Snow Light Snow
11:07 AM 19.4 °F 3.2 °F 17.6 °F 93% 30.27 in 1.0 mi NNE 20.7 mph 29.9 mph 0.00 in Snow Light Snow
11:23 AM 19.4 °F 2.5 °F 17.6 °F 93% 30.27 in 1.0 mi NE 23.0 mph 29.9 mph 0.00 in Snow Light Snow
11:35 AM 19.4 °F 1.8 °F 17.6 °F 93% 30.27 in 1.0 mi NE 25.3 mph - 0.00 in Snow Light Snow
11:53 AM 19.9 °F 2.8 °F 17.1 °F 89% 30.29 in 1.0 mi NE 24.2 mph 29.9 mph 0.00 in Snow Light Snow
12:36 PM 19.4 °F 1.8 °F 15.8 °F 86% 30.27 in 0.8 mi NNE 25.3 mph 33.4 mph 0.00 in Snow Light Snow
12:53 PM 19.0 °F 1.3 °F 17.1 °F 92% 30.30 in 0.8 mi NNE 25.3 mph 32.2 mph 0.00 in Snow Light Snow
1:31 PM 19.4 °F 0.8 °F 15.8 °F 86% 30.26 in 0.5 mi NE 28.8 mph 32.2 mph 0.00 in Fog , Snow Light Snow
1:42 PM 19.4 °F 1.8 °F 15.8 °F 86% 30.26 in 0.8 mi NE 25.3 mph - 0.00 in Rain Light Freezing Rain
1:53 PM 19.0 °F 1.0 °F 16.0 °F 88% 30.29 in 1.0 mi NE 26.5 mph 32.2 mph 0.00 in Snow Light Snow
2:53 PM 18.0 °F 0.6 °F 15.1 °F 88% 30.30 in 1.0 mi NE 23.0 mph 31.1 mph 0.00 in Snow Light Snow
3:41 PM 17.6 °F -0.6 °F 15.8 °F 93% 30.29 in 0.5 mi NE 25.3 mph - 0.00 in Fog , Snow Snow
3:53 PM 18.0 °F 0.9 °F 16.0 °F 92% 30.32 in 0.5 mi NE 21.9 mph 29.9 mph 0.00 in Fog , Snow Snow
4:06 PM 17.6 °F -0.6 °F 15.8 °F 93% 30.30 in 0.2 mi NE 25.3 mph 33.4 mph 0.00 in Fog , Snow Snow
4:19 PM 17.6 °F -0.3 °F 15.8 °F 93% 30.31 in 0.2 mi NNE 24.2 mph 31.1 mph 0.00 in Fog , Snow Snow
4:33 PM 17.6 °F - 15.8 °F 93% 30.31 in - North - - 0.00 in   Unknown
4:53 PM 17.1 °F -1.0 °F 15.1 °F 92% 30.35 in 0.5 mi NE 24.2 mph 31.1 mph 0.00 in Fog , Snow Light Snow
5:02 PM 17.6 °F -1.0 °F 15.8 °F 93% 30.33 in 0.5 mi NNE 26.5 mph 33.4 mph 0.00 in Fog , Snow Light Snow
5:36 PM 17.6 °F -0.3 °F 15.8 °F 93% 30.35 in 1.0 mi NE 24.2 mph 32.2 mph 0.00 in Snow Light Snow
5:53 PM 17.1 °F -1.7 °F 15.1 °F 92% 30.38 in 1.0 mi NE 26.5 mph 33.4 mph 0.00 in Snow Light Snow
6:05 PM 17.6 °F -1.0 °F 15.8 °F 93% 30.35 in 1.0 mi NE 26.5 mph 33.4 mph 0.00 in Snow Light Snow
6:12 PM 17.6 °F -1.3 °F 15.8 °F 93% 30.35 in 0.8 mi NE 27.6 mph 33.4 mph 0.00 in Snow Light Snow
6:53 PM 18.0 °F 0.2 °F 16.0 °F 92% 30.39 in 0.5 mi NE 24.2 mph - 0.00 in Fog , Snow Snow
7:05 PM 17.6 °F 0.5 °F 15.8 °F 93% 30.36 in 1.2 mi NE 21.9 mph - 0.00 in Snow Light Snow
7:15 PM 17.6 °F 0.5 °F 15.8 °F 93% 30.36 in 2.5 mi NE 21.9 mph - 0.00 in Snow Light Snow
7:19 PM 17.6 °F 0.9 °F 15.8 °F 93% 30.36 in 2.0 mi NE 20.7 mph - 0.00 in Snow Light Snow
7:53 PM 18.0 °F 0.9 °F 15.1 °F 88% 30.39 in 2.5 mi NE 21.9 mph 27.6 mph 0.00 in Snow Light Snow
8:15 PM 17.6 °F 0.9 °F 14.0 °F 86% 30.36 in 1.8 mi NE 20.7 mph 28.8 mph 0.00 in Snow Light Snow
8:24 PM 17.6 °F 0.9 °F 14.0 °F 86% 30.36 in 2.0 mi NE 20.7 mph - 0.00 in Snow Light Snow
8:43 PM 17.6 °F 1.7 °F 14.0 °F 86% 30.35 in 3.0 mi NE 18.4 mph 24.2 mph 0.00 in Snow Light Snow
8:53 PM 17.1 °F -0.3 °F 12.9 °F 84% 30.38 in 3.0 mi ENE 21.9 mph 28.8 mph 0.00 in Snow Light Snow
9:03 PM 17.6 °F 0.1 °F 12.2 °F 79% 30.35 in 2.0 mi ENE 23.0 mph 35.7 mph 0.00 in Snow Light Snow
9:25 PM 17.6 °F 1.7 °F 12.2 °F 79% 30.35 in 4.0 mi ENE 18.4 mph 26.5 mph 0.00 in Snow Light Snow
9:53 PM 16.0 °F -0.4 °F 10.9 °F 81% 30.38 in 5.0 mi ENE 18.4 mph 26.5 mph 0.00 in Snow Light Snow
10:05 PM 15.8 °F -1.9 °F 10.4 °F 79% 30.34 in 4.0 mi ENE 21.9 mph 28.8 mph 0.00 in Snow Light Snow
10:43 PM 15.8 °F -0.6 °F 8.6 °F 73% 30.33 in 4.0 mi ENE 18.4 mph - 0.00 in Snow Light Snow
10:53 PM 15.1 °F -2.9 °F 8.1 °F 74% 30.37 in 2.5 mi ENE 21.9 mph 29.9 mph 0.00 in Snow Light Snow
11:16 PM 14.0 °F -2.5 °F 8.6 °F 79% 30.34 in 1.8 mi ENE 17.3 mph - 0.00 in Snow Light Snow
11:27 PM 14.0 °F -2.0 °F 8.6 °F 79% 30.35 in 2.0 mi NE 16.1 mph - 0.00 in Snow Light Snow
11:34 PM 14.0 °F -2.0 °F 8.6 °F 79% 30.34 in 2.5 mi NE 16.1 mph - 0.00 in Snow Light Snow
11:53 PM 12.9 °F -1.6 °F 9.0 °F 84% 30.38 in 2.5 mi ENE 12.7 mph - 0.00 in Snow Light Snow